{"data":{"norad_id":51287,"intl_designator":"2021-118E","name":"ASCENT","alt_names":[],"object_type":"PAYLOAD","status":"ACTIVE","operator":null,"country":"US","launch_date":"2021-12-07","launch_site_code":"AFETR","launch_vehicle":null,"mission":null,"orbit_class":"UNKNOWN","rcs_meters":null,"size_class":null,"mass_kg":null,"dimensions":null,"purposes":[],"wikipedia_slug":null,"has_3d_model":false,"image_url":null,"decayed_at":null,"tle_current":{"epoch":"2026-05-24T14:43:31.437120Z","epoch_age_seconds":102289,"freshness":"FRESH","line1":"1 51287U 21118E   26144.61355830 -.00000040  00000+0  00000+0 0  9997","line2":"2 51287   4.1139  77.5410 0003558 112.0555 247.7735  1.01221923 16088","mean_motion":1.01221923,"eccentricity":0.0003558,"inclination_deg":4.1139,"raan_deg":77.541,"arg_perigee_deg":112.0555,"mean_anomaly_deg":247.7735,"bstar":0,"rev_number":1608,"period_min":1422.6167191074,"perigee_km":35507.414301367,"apogee_km":35537.230668336,"semimajor_km":41900.459484851,"source":"CELESTRAK","updated_at":"2026-05-25T13:37:57.411547Z"}}}